Location: Sevilla
(37.3933°N, 5.9839°W)
Time: 22:21:46
(UTC+02:00)

Vanguard 2 - Visible Passes

Search period start: 23 June 2024 00:00
Search period end: 03 July 2024 00:00
Orbit: 552 x 2914 km, 32.9° (Epoch: 23 June)

Date Brightness Start Highest point End Pass type
(mag) Time Alt. Az. Time Alt. Az. Time Alt. Az.
23 Jun 10.9 05:55:55 10° SSW 06:07:26 36° SE 06:22:14 10° E visible
24 Jun 11.0 04:07:48 10° SSE 04:12:55 14° SE 04:19:06 10° ESE visible
24 Jun 10.7 06:09:15 10° SSW 06:21:13 43° SE 06:36:59 10° E visible
25 Jun 10.7 04:21:08 14° SSE 04:26:25 19° SE 04:35:47 10° E visible
25 Jun 10.5 06:22:50 10° SW 06:35:06 51° SSE 06:51:35 10° E visible
26 Jun 10.5 04:34:25 18° S 04:39:58 26° SE 04:51:23 10° E visible
27 Jun 10.3 04:47:41 21° S 04:53:35 32° SE 05:06:29 10° E visible
28 Jun 10.1 05:00:56 23° SSW 05:07:18 39° SE 05:21:17 10° E visible
29 Jun 10.7 03:13:03 15° SE 03:13:25 15° SE 03:19:18 10° E visible
29 Jun 10.0 05:14:09 23° SSW 05:21:07 47° SSE 05:35:55 10° E visible
30 Jun 10.4 03:26:16 20° SE 03:26:55 21° SE 03:35:18 10° E visible
30 Jun 9.9 05:27:22 21° SW 05:35:03 54° SSE 05:50:26 10° E visible
01 Jul 10.0 03:39:28 26° SSE 03:40:30 27° SE 03:50:33 10° E visible
01 Jul 9.8 05:40:34 18° SW 05:49:06 61° SSE 06:04:54 10° E visible
02 Jul 9.7 03:52:40 32° SSE 03:54:11 34° SE 04:05:25 10° E visible
02 Jul 9.8 05:53:46 14° WSW 06:03:14 66° SSE 06:19:20 10° E visible
